TimeEST,TemperatureF,Dew PointF,Humidity,Sea Level PressureIn,VisibilityMPH,Wind Direction,Wind SpeedMPH,Gust SpeedMPH,PrecipitationIn,Events,Conditions,WindDirDegrees,DateUTC
12:55 AM,60.1,57.7,92,30.15,10.0,NE,8.1,-,N/A,,Overcast,50,2012-11-17 05:55:00
1:43 AM,60.8,57.2,88,30.15,10.0,ENE,11.5,-,N/A,,Overcast,60,2012-11-17 06:43:00
1:55 AM,59.7,57.7,93,30.14,10.0,NE,6.9,-,N/A,,Overcast,50,2012-11-17 06:55:00
2:05 AM,59.0,57.2,94,30.14,10.0,NE,9.2,-,N/A,,Overcast,50,2012-11-17 07:05:00
2:35 AM,59.0,57.2,94,30.13,10.0,NE,9.2,-,N/A,,Overcast,40,2012-11-17 07:35:00
2:55 AM,59.4,57.6,94,30.13,10.0,NE,6.9,-,N/A,,Overcast,40,2012-11-17 07:55:00
3:55 AM,59.2,57.6,94,30.13,10.0,NE,5.8,-,N/A,,Overcast,40,2012-11-17 08:55:00
4:18 AM,59.0,57.2,94,30.12,10.0,ENE,10.4,-,N/A,,Overcast,60,2012-11-17 09:18:00
4:55 AM,59.2,57.9,96,30.13,10.0,ENE,15.0,-,N/A,,Overcast,70,2012-11-17 09:55:00
5:22 AM,59.0,57.2,94,30.13,10.0,ENE,12.7,-,N/A,,Overcast,60,2012-11-17 10:22:00
5:55 AM,59.0,58.1,97,30.14,10.0,ENE,11.5,-,N/A,,Overcast,60,2012-11-17 10:55:00
6:55 AM,59.2,58.6,98,30.16,10.0,ENE,10.4,-,N/A,,Overcast,60,2012-11-17 11:55:00
7:55 AM,59.7,59.5,99,30.17,10.0,NE,5.8,-,N/A,,Overcast,50,2012-11-17 12:55:00
8:00 AM,60.8,59.0,94,30.17,10.0,ENE,10.4,-,N/A,,Overcast,60,2012-11-17 13:00:00
8:36 AM,62.6,60.8,94,30.17,10.0,ENE,12.7,-,N/A,,Light Drizzle,70,2012-11-17 13:36:00
8:49 AM,62.6,62.6,100,30.17,10.0,ENE,9.2,-,N/A,,Overcast,70,2012-11-17 13:49:00
8:55 AM,63.1,62.2,97,30.17,10.0,ENE,11.5,-,0.00,,Overcast,70,2012-11-17 13:55:00
9:08 AM,64.4,62.6,94,30.17,10.0,ENE,11.5,-,N/A,,Scattered Clouds,70,2012-11-17 14:08:00
9:55 AM,68.0,62.8,83,30.17,10.0,ENE,12.7,-,N/A,,Clear,60,2012-11-17 14:55:00
10:55 AM,72.7,63.5,73,30.16,10.0,NE,8.1,-,N/A,,Clear,50,2012-11-17 15:55:00
11:55 AM,76.6,63.5,64,30.14,10.0,East,3.5,-,N/A,,Clear,90,2012-11-17 16:55:00
12:55 PM,79.3,63.9,59,30.12,10.0,NNW,6.9,-,N/A,,Clear,340,2012-11-17 17:55:00
1:55 PM,79.2,63.3,58,30.10,10.0,Variable,6.9,-,N/A,,Clear,0,2012-11-17 18:55:00
2:55 PM,77.4,64.0,63,30.09,10.0,NNW,8.1,-,N/A,,Clear,330,2012-11-17 19:55:00
3:55 PM,78.4,62.4,58,30.09,10.0,ENE,8.1,-,N/A,,Clear,70,2012-11-17 20:55:00
4:55 PM,77.2,62.8,61,30.09,10.0,ENE,8.1,-,N/A,,Clear,60,2012-11-17 21:55:00
5:55 PM,72.5,63.1,72,30.11,10.0,NE,10.4,20.7,N/A,,Partly Cloudy,50,2012-11-17 22:55:00
6:55 PM,68.4,63.7,85,30.13,10.0,NE,13.8,-,N/A,,Clear,50,2012-11-17 23:55:00
7:55 PM,65.8,62.1,88,30.15,10.0,ENE,13.8,23.0,N/A,,Clear,60,2012-11-18 00:55:00
8:55 PM,63.7,60.8,90,30.17,10.0,ENE,15.0,-,N/A,,Clear,70,2012-11-18 01:55:00
9:12 PM,64.4,60.8,88,30.17,10.0,ENE,19.6,-,N/A,,Mostly Cloudy,70,2012-11-18 02:12:00
9:32 PM,62.6,60.8,94,30.17,10.0,ENE,17.3,-,N/A,,Scattered Clouds,70,2012-11-18 02:32:00
9:55 PM,63.0,60.3,91,30.17,10.0,ENE,16.1,-,N/A,,Partly Cloudy,70,2012-11-18 02:55:00
10:55 PM,62.8,60.4,92,30.17,10.0,ENE,17.3,-,N/A,,Mostly Cloudy,70,2012-11-18 03:55:00
11:14 PM,62.6,60.8,94,30.17,10.0,ENE,16.1,-,N/A,,Mostly Cloudy,70,2012-11-18 04:14:00
11:45 PM,62.6,60.8,94,30.16,10.0,ENE,15.0,-,N/A,,Scattered Clouds,70,2012-11-18 04:45:00
11:55 PM,62.4,60.4,93,30.15,10.0,ENE,15.0,-,N/A,,Partly Cloudy,60,2012-11-18 04:55:00